sat.trackr.live / text

‹ back to catalog

STARLINK-30112

NORAD 56306 · 2023-056W

PAYLOAD ACTIVE UNKNOWN

§ Identity

Operator
Country
US
Launch date
2023-04-19
Launch site
AFETR
Launch vehicle
Mass (kg)
RCS (m²)

Purposes: comms

External: N2YO · Heavens-Above · Gunter

§ Orbital elements

Epoch: 2026-05-24T23:54:03.995712Z

Period
94.27 min
Inclination
43.0008°
Eccentricity
0.0001032
Mean motion
15.27576695 rev/d
Perigee alt
482.4 km
Apogee alt
483.8 km
Semi-major
6,861.2 km
B*
-5.9168e-5
RAAN
137.5952°
Arg perigee
275.0675°
Mean anomaly
85.0058°
Rev number
17,177

§ Raw data

STARLINK-301121 56306U 23056W   26144.99587958 -.00001890  00000+0 -59168-4 0  99952 56306  43.0008 137.5952 0001032 275.0675  85.0058 15.27576695171779

JSON: /api/v1/satellites/56306 · /tle

For live sub-satellite position, see the globe view (requires WebGL).

§ Visibility from observer

Set your observer location to see the next 7 days of passes ≥ 10°. The values pass through the URL so the page stays shareable.

No JS? Fill the form by hand. The geolocation button needs JavaScript.